Time,TemperatureF,DewpointF,PressureIn,WindDirection,WindDirectionDegrees,WindSpeedMPH,WindSpeedGustMPH,Humidity,HourlyPrecipIn,Conditions,Clouds,dailyrainin,SolarRadiationWatts/m^2,SoftwareType,DateUTC
2013-02-26 00:04:00,28.8,18.2,29.79,North,-999,4.0,6.0,64,0.00,,,0.00,0.00,VWS V14.01,2013-02-26 07:04:00,
2013-02-26 00:09:00,29.0,18.4,29.79,North,-999,2.0,3.0,64,0.00,,,0.00,0.00,VWS V14.01,2013-02-26 07:09:00,
2013-02-26 00:14:00,29.1,18.5,29.79,North,-999,0.0,3.0,64,0.00,,,0.00,0.00,VWS V14.01,2013-02-26 07:14:00,
2013-02-26 00:19:00,29.1,18.5,29.79,North,-999,0.0,0.0,64,0.00,,,0.00,0.00,VWS V14.01,2013-02-26 07:19:00,
2013-02-26 00:24:00,29.2,18.5,29.80,North,-999,2.0,2.0,64,0.00,,,0.00,0.00,VWS V14.01,2013-02-26 07:24:00,
2013-02-26 00:29:00,29.2,18.5,29.80,North,-999,0.0,0.0,64,0.00,,,0.00,0.00,VWS V14.01,2013-02-26 07:29:00,
2013-02-26 00:34:00,29.2,18.2,29.80,North,-999,0.0,0.0,63,0.00,,,0.00,0.00,VWS V14.01,2013-02-26 07:34:00,
2013-02-26 00:39:00,29.3,18.6,29.80,North,-999,0.0,0.0,64,0.00,,,0.00,0.00,VWS V14.01,2013-02-26 07:39:00,
2013-02-26 00:44:00,30.1,20.1,29.80,North,-999,3.0,10.0,66,0.00,,,0.00,0.00,VWS V14.01,2013-02-26 07:44:00,
2013-02-26 00:49:00,30.3,20.0,29.80,North,-999,3.0,5.0,65,0.00,,,0.00,0.00,VWS V14.01,2013-02-26 07:49:00,
2013-02-26 00:54:00,30.1,19.4,29.80,North,-999,0.0,5.0,64,0.00,,,0.00,0.00,VWS V14.01,2013-02-26 07:54:00,
2013-02-26 00:59:00,30.0,19.3,29.80,North,-999,0.0,0.0,64,0.00,,,0.00,0.00,VWS V14.01,2013-02-26 07:59:00,
2013-02-26 01:04:00,29.9,19.9,29.80,North,-999,0.0,0.0,66,0.00,,,0.00,0.00,VWS V14.01,2013-02-26 08:04:00,
2013-02-26 01:09:00,29.9,20.6,29.80,North,-999,0.0,0.0,68,0.00,,,0.00,0.00,VWS V14.01,2013-02-26 08:09:00,
2013-02-26 01:14:00,29.9,21.0,29.80,North,-999,0.0,0.0,69,0.00,,,0.00,0.00,VWS V14.01,2013-02-26 08:14:00,
2013-02-26 01:19:00,29.9,21.0,29.79,North,-999,0.0,0.0,69,0.00,,,0.00,0.00,VWS V14.01,2013-02-26 08:19:00,
2013-02-26 01:24:00,30.1,21.2,29.79,North,-999,0.0,0.0,69,0.00,,,0.00,0.00,VWS V14.01,2013-02-26 08:24:00,
2013-02-26 01:29:00,30.3,21.4,29.79,North,-999,0.0,0.0,69,0.00,,,0.00,0.00,VWS V14.01,2013-02-26 08:29:00,
2013-02-26 01:34:00,30.3,21.0,29.79,North,-999,0.0,0.0,68,0.00,,,0.00,0.00,VWS V14.01,2013-02-26 08:34:00,
2013-02-26 01:39:00,30.1,21.2,29.79,North,-999,0.0,0.0,69,0.00,,,0.00,0.00,VWS V14.01,2013-02-26 08:39:00,
2013-02-26 01:44:00,29.8,21.2,29.79,North,-999,0.0,1.0,70,0.00,,,0.00,0.00,VWS V14.01,2013-02-26 08:44:00,
2013-02-26 01:49:00,29.6,20.7,29.79,North,-999,0.0,0.0,69,0.00,,,0.00,0.00,VWS V14.01,2013-02-26 08:49:00,
2013-02-26 01:54:00,29.4,20.5,29.79,North,-999,0.0,0.0,69,0.00,,,0.00,0.00,VWS V14.01,2013-02-26 08:54:00,
2013-02-26 01:59:00,29.2,19.6,29.79,North,-999,3.0,4.0,67,0.00,,,0.00,0.00,VWS V14.01,2013-02-26 08:59:00,
2013-02-26 02:04:00,29.6,19.3,29.79,North,-999,6.0,8.0,65,0.00,,,0.00,0.00,VWS V14.01,2013-02-26 09:04:00,
2013-02-26 02:09:00,29.5,18.8,29.79,North,-999,6.0,10.0,64,0.00,,,0.00,0.00,VWS V14.01,2013-02-26 09:09:00,
2013-02-26 02:14:00,29.2,18.9,29.79,North,-999,7.0,10.0,65,0.00,,,0.00,0.00,VWS V14.01,2013-02-26 09:14:00,
2013-02-26 02:19:00,28.9,18.6,29.79,North,-999,5.0,7.0,65,0.00,,,0.00,0.00,VWS V14.01,2013-02-26 09:19:00,
2013-02-26 02:24:00,28.8,18.5,29.79,North,-999,6.0,7.0,65,0.00,,,0.00,0.00,VWS V14.01,2013-02-26 09:24:00,
2013-02-26 02:29:00,28.7,18.1,29.79,North,-999,6.0,9.0,64,0.00,,,0.00,0.00,VWS V14.01,2013-02-26 09:29:00,
2013-02-26 02:34:00,28.7,17.7,29.79,North,-999,7.0,9.0,63,0.00,,,0.00,0.00,VWS V14.01,2013-02-26 09:34:00,
2013-02-26 02:39:00,28.8,17.4,29.80,North,-999,9.0,10.0,62,0.00,,,0.00,0.00,VWS V14.01,2013-02-26 09:39:00,
2013-02-26 02:44:00,28.9,16.8,29.80,North,-999,8.0,11.0,60,0.00,,,0.00,0.00,VWS V14.01,2013-02-26 09:44:00,
2013-02-26 02:49:00,29.2,16.3,29.80,North,-999,7.0,12.0,58,0.00,,,0.00,0.00,VWS V14.01,2013-02-26 09:49:00,
2013-02-26 02:54:00,29.6,15.4,29.79,North,-999,10.0,12.0,55,0.00,,,0.00,0.00,VWS V14.01,2013-02-26 09:54:00,
2013-02-26 02:59:00,29.8,14.8,29.80,North,-999,11.0,12.0,53,0.00,,,0.00,0.00,VWS V14.01,2013-02-26 09:59:00,
2013-02-26 03:04:00,29.7,14.2,29.79,North,-999,10.0,13.0,52,0.00,,,0.00,0.00,VWS V14.01,2013-02-26 10:04:00,
2013-02-26 03:09:00,29.7,13.8,29.79,North,-999,9.0,11.0,51,0.00,,,0.00,0.00,VWS V14.01,2013-02-26 10:09:00,
2013-02-26 03:14:00,29.1,13.7,29.79,North,-999,7.0,11.0,52,0.00,,,0.00,0.00,VWS V14.01,2013-02-26 10:14:00,
2013-02-26 03:19:00,28.8,13.4,29.79,North,-999,10.0,12.0,52,0.00,,,0.00,0.00,VWS V14.01,2013-02-26 10:19:00,
2013-02-26 03:24:00,28.4,13.0,29.79,North,-999,6.0,12.0,52,0.00,,,0.00,0.00,VWS V14.01,2013-02-26 10:24:00,
2013-02-26 03:29:00,27.8,12.9,29.79,North,-999,9.0,11.0,53,0.00,,,0.00,0.00,VWS V14.01,2013-02-26 10:29:00,
2013-02-26 03:34:00,28.1,13.6,29.79,North,-999,9.0,13.0,54,0.00,,,0.00,0.00,VWS V14.01,2013-02-26 10:34:00,
2013-02-26 03:39:00,28.1,14.4,29.79,North,-999,9.0,11.0,56,0.00,,,0.00,0.00,VWS V14.01,2013-02-26 10:39:00,
2013-02-26 03:44:00,27.9,15.1,29.79,North,-999,7.0,11.0,58,0.00,,,0.00,0.00,VWS V14.01,2013-02-26 10:44:00,
2013-02-26 03:49:00,28.3,14.6,29.79,North,-999,6.0,7.0,56,0.00,,,0.00,0.00,VWS V14.01,2013-02-26 10:49:00,
2013-02-26 03:54:00,27.9,13.8,29.80,North,-999,9.0,9.0,55,0.00,,,0.00,0.00,VWS V14.01,2013-02-26 10:54:00,
2013-02-26 03:59:00,27.5,14.3,29.80,North,-999,6.0,7.0,57,0.00,,,0.00,0.00,VWS V14.01,2013-02-26 10:59:00,
2013-02-26 04:04:00,28.4,14.7,29.80,North,-999,5.0,7.0,56,0.00,,,0.00,0.00,VWS V14.01,2013-02-26 11:04:00,
2013-02-26 04:09:00,28.2,13.7,29.80,North,-999,5.0,6.0,54,0.00,,,0.00,0.00,VWS V14.01,2013-02-26 11:09:00,
2013-02-26 04:14:00,28.0,13.5,29.80,North,-999,7.0,9.0,54,0.00,,,0.00,0.00,VWS V14.01,2013-02-26 11:14:00,
2013-02-26 04:19:00,28.1,13.2,29.80,North,-999,10.0,11.0,53,0.00,,,0.00,0.00,VWS V14.01,2013-02-26 11:19:00,
2013-02-26 04:24:00,27.8,12.5,29.81,North,-999,6.0,11.0,52,0.00,,,0.00,0.00,VWS V14.01,2013-02-26 11:24:00,
2013-02-26 04:29:00,26.8,12.0,29.81,North,-999,8.0,9.0,53,0.00,,,0.00,0.00,VWS V14.01,2013-02-26 11:29:00,
2013-02-26 04:34:00,27.0,12.6,29.80,North,-999,6.0,11.0,54,0.00,,,0.00,0.00,VWS V14.01,2013-02-26 11:34:00,
2013-02-26 04:39:00,27.0,12.6,29.81,North,-999,6.0,7.0,54,0.00,,,0.00,0.00,VWS V14.01,2013-02-26 11:39:00,
2013-02-26 04:44:00,26.7,12.3,29.81,North,-999,6.0,8.0,54,0.00,,,0.00,0.00,VWS V14.01,2013-02-26 11:44:00,
2013-02-26 04:49:00,26.7,12.3,29.81,North,-999,6.0,8.0,54,0.00,,,0.00,0.00,VWS V14.01,2013-02-26 11:49:00,
2013-02-26 04:54:00,26.8,12.0,29.81,North,-999,4.0,8.0,53,0.00,,,0.00,0.00,VWS V14.01,2013-02-26 11:54:00,
2013-02-26 04:59:00,25.7,10.9,29.81,North,-999,7.0,7.0,53,0.00,,,0.00,0.00,VWS V14.01,2013-02-26 11:59:00,
2013-02-26 05:04:00,26.2,11.8,29.81,North,-999,3.0,7.0,54,0.00,,,0.00,0.00,VWS V14.01,2013-02-26 12:04:00,
2013-02-26 05:08:00,26.2,11.8,29.81,North,-999,0.0,0.0,54,0.00,,,0.00,0.00,VWS V14.01,2013-02-26 12:08:00,
2013-02-26 05:13:00,26.6,12.2,29.81,North,-999,0.0,2.0,54,0.00,,,0.00,0.00,VWS V14.01,2013-02-26 12:13:00,
2013-02-26 05:18:00,26.7,11.9,29.82,North,-999,0.0,0.0,53,0.00,,,0.00,0.00,VWS V14.01,2013-02-26 12:18:00,
2013-02-26 05:23:00,26.7,11.9,29.82,North,-999,0.0,2.0,53,0.00,,,0.00,0.00,VWS V14.01,2013-02-26 12:23:00,
2013-02-26 05:28:00,27.0,12.2,29.82,North,-999,0.0,1.0,53,0.00,,,0.00,0.00,VWS V14.01,2013-02-26 12:28:00,
2013-02-26 05:33:00,27.1,11.8,29.82,North,-999,0.0,1.0,52,0.00,,,0.00,0.00,VWS V14.01,2013-02-26 12:33:00,
2013-02-26 05:38:00,27.1,11.8,29.82,North,-999,1.0,1.0,52,0.00,,,0.00,0.00,VWS V14.01,2013-02-26 12:38:00,
2013-02-26 05:43:00,27.3,11.6,29.83,North,-999,2.0,3.0,51,0.00,,,0.00,0.00,VWS V14.01,2013-02-26 12:43:00,
2013-02-26 05:48:00,28.0,11.8,29.83,North,-999,4.0,4.0,50,0.00,,,0.00,0.00,VWS V14.01,2013-02-26 12:48:00,
2013-02-26 05:53:00,28.5,11.8,29.83,North,-999,3.0,8.0,49,0.00,,,0.00,0.00,VWS V14.01,2013-02-26 12:53:00,
2013-02-26 05:58:00,28.6,11.4,29.83,North,-999,5.0,7.0,48,0.00,,,0.00,0.00,VWS V14.01,2013-02-26 12:58:00,
2013-02-26 06:03:00,28.5,11.3,29.84,North,-999,2.0,7.0,48,0.00,,,0.00,0.00,VWS V14.01,2013-02-26 13:03:00,
2013-02-26 06:08:00,28.1,10.9,29.83,North,-999,0.0,0.0,48,0.00,,,0.00,0.00,VWS V14.01,2013-02-26 13:08:00,
2013-02-26 06:13:00,27.5,10.4,29.84,North,-999,0.0,0.0,48,0.00,,,0.00,0.00,VWS V14.01,2013-02-26 13:13:00,
2013-02-26 06:18:00,26.2,10.6,29.84,North,-999,0.0,0.0,51,0.00,,,0.00,0.00,VWS V14.01,2013-02-26 13:18:00,
2013-02-26 06:23:00,25.7,10.9,29.85,North,-999,0.0,0.0,53,0.00,,,0.00,0.00,VWS V14.01,2013-02-26 13:23:00,
2013-02-26 06:28:00,25.7,11.8,29.85,North,-999,0.0,0.0,55,0.00,,,0.00,0.00,VWS V14.01,2013-02-26 13:28:00,
2013-02-26 06:33:00,25.6,11.7,29.85,North,-999,0.0,0.0,55,0.00,,,0.00,0.00,VWS V14.01,2013-02-26 13:33:00,
2013-02-26 06:38:00,25.5,11.6,29.86,North,-999,0.0,0.0,55,0.00,,,0.00,0.00,VWS V14.01,2013-02-26 13:38:00,
2013-02-26 06:43:00,25.1,10.8,29.86,North,-999,0.0,0.0,54,0.00,,,0.00,0.00,VWS V14.01,2013-02-26 13:43:00,
2013-02-26 06:48:00,24.6,10.8,29.86,North,-999,0.0,0.0,55,0.00,,,0.00,0.00,VWS V14.01,2013-02-26 13:48:00,
2013-02-26 06:53:00,24.3,10.9,29.86,North,-999,0.0,0.0,56,0.00,,,0.00,0.00,VWS V14.01,2013-02-26 13:53:00,
2013-02-26 06:58:00,23.6,9.8,29.86,North,-999,0.0,0.0,55,0.00,,,0.00,0.00,VWS V14.01,2013-02-26 13:58:00,
2013-02-26 07:03:00,22.5,9.6,29.86,North,-999,2.0,2.0,57,0.00,,,0.00,5.00,VWS V14.01,2013-02-26 14:03:00,
2013-02-26 07:08:00,21.8,9.7,29.86,North,-999,2.0,3.0,59,0.00,,,0.00,7.00,VWS V14.01,2013-02-26 14:08:00,
2013-02-26 07:13:00,21.2,8.4,29.87,North,-999,0.0,3.0,57,0.00,,,0.00,12.00,VWS V14.01,2013-02-26 14:13:00,
2013-02-26 07:18:00,21.6,9.5,29.87,North,-999,0.0,0.0,59,0.00,,,0.00,16.00,VWS V14.01,2013-02-26 14:18:00,
2013-02-26 07:23:00,22.2,9.7,29.87,North,-999,0.0,0.0,58,0.00,,,0.00,19.00,VWS V14.01,2013-02-26 14:23:00,
2013-02-26 07:28:00,22.4,9.5,29.87,North,-999,0.0,0.0,57,0.00,,,0.00,25.00,VWS V14.01,2013-02-26 14:28:00,
2013-02-26 07:33:00,22.2,9.7,29.87,North,-999,0.0,0.0,58,0.00,,,0.00,32.00,VWS V14.01,2013-02-26 14:33:00,
2013-02-26 07:38:00,22.2,10.1,29.88,North,-999,0.0,0.0,59,0.00,,,0.00,37.00,VWS V14.01,2013-02-26 14:38:00,
2013-02-26 07:43:00,22.9,11.1,29.88,North,-999,0.0,0.0,60,0.00,,,0.00,44.00,VWS V14.01,2013-02-26 14:43:00,
2013-02-26 07:48:00,24.1,11.9,29.88,North,-999,0.0,0.0,59,0.00,,,0.00,51.00,VWS V14.01,2013-02-26 14:48:00,
2013-02-26 07:53:00,24.7,11.2,29.88,North,-999,0.0,0.0,56,0.00,,,0.00,58.00,VWS V14.01,2013-02-26 14:53:00,
2013-02-26 07:58:00,24.7,12.0,29.88,North,-999,0.0,0.0,58,0.00,,,0.00,63.00,VWS V14.01,2013-02-26 14:58:00,
2013-02-26 08:03:00,25.0,12.7,29.88,North,-999,0.0,0.0,59,0.00,,,0.00,70.00,VWS V14.01,2013-02-26 15:03:00,
2013-02-26 08:08:00,25.9,13.6,29.88,North,-999,0.0,0.0,59,0.00,,,0.00,76.00,VWS V14.01,2013-02-26 15:08:00,
2013-02-26 08:13:00,26.3,15.1,29.88,North,-999,0.0,0.0,62,0.00,,,0.00,70.00,VWS V14.01,2013-02-26 15:13:00,
2013-02-26 08:18:00,26.3,13.6,29.88,North,-999,0.0,0.0,58,0.00,,,0.00,79.00,VWS V14.01,2013-02-26 15:18:00,
2013-02-26 08:23:00,27.0,14.2,29.88,North,-999,3.0,6.0,58,0.00,,,0.00,70.00,VWS V14.01,2013-02-26 15:23:00,
2013-02-26 08:28:00,28.4,14.7,29.88,North,-999,2.0,3.0,56,0.00,,,0.00,67.00,VWS V14.01,2013-02-26 15:28:00,
2013-02-26 08:33:00,29.1,14.5,29.88,North,-999,3.0,10.0,54,0.00,,,0.00,91.00,VWS V14.01,2013-02-26 15:33:00,
2013-02-26 08:38:00,29.5,14.9,29.88,North,-999,3.0,10.0,54,0.00,,,0.00,179.00,VWS V14.01,2013-02-26 15:38:00,
2013-02-26 08:43:00,29.8,15.2,29.89,North,-999,6.0,11.0,54,0.00,,,0.00,232.00,VWS V14.01,2013-02-26 15:43:00,
2013-02-26 08:48:00,30.2,15.6,29.89,North,-999,6.0,11.0,54,0.00,,,0.00,244.00,VWS V14.01,2013-02-26 15:48:00,
2013-02-26 08:53:00,30.7,15.2,29.89,North,-999,7.0,12.0,52,0.00,,,0.00,257.00,VWS V14.01,2013-02-26 15:53:00,
2013-02-26 08:58:00,31.2,15.2,29.89,North,-999,8.0,12.0,51,0.00,,,0.00,308.00,VWS V14.01,2013-02-26 15:58:00,
2013-02-26 09:03:00,31.6,15.6,29.90,North,-999,9.0,12.0,51,0.00,,,0.00,322.00,VWS V14.01,2013-02-26 16:03:00,
2013-02-26 09:08:00,32.1,15.1,29.90,North,-999,10.0,15.0,49,0.00,,,0.00,281.00,VWS V14.01,2013-02-26 16:08:00,
2013-02-26 09:13:00,32.1,14.2,29.90,North,-999,13.0,16.0,47,0.00,,,0.00,193.00,VWS V14.01,2013-02-26 16:13:00,
2013-02-26 09:18:00,32.0,14.1,29.91,North,-999,8.0,16.0,47,0.00,,,0.00,223.00,VWS V14.01,2013-02-26 16:18:00,
2013-02-26 09:23:00,32.1,14.2,29.91,North,-999,11.0,15.0,47,0.00,,,0.00,192.00,VWS V14.01,2013-02-26 16:23:00,
2013-02-26 09:28:00,32.3,14.3,29.91,North,-999,13.0,16.0,47,0.00,,,0.00,200.00,VWS V14.01,2013-02-26 16:28:00,
2013-02-26 09:33:00,32.5,14.0,29.91,North,-999,12.0,16.0,46,0.00,,,0.00,246.00,VWS V14.01,2013-02-26 16:33:00,
2013-02-26 09:38:00,32.5,14.0,29.91,North,-999,13.0,17.0,46,0.00,,,0.00,225.00,VWS V14.01,2013-02-26 16:38:00,
2013-02-26 09:43:00,32.4,13.4,29.90,North,-999,9.0,16.0,45,0.00,,,0.00,227.00,VWS V14.01,2013-02-26 16:43:00,
2013-02-26 09:48:00,32.3,13.9,29.90,North,-999,13.0,17.0,46,0.00,,,0.00,206.00,VWS V14.01,2013-02-26 16:48:00,
2013-02-26 09:53:00,32.4,13.9,29.90,North,-999,16.0,17.0,46,0.00,,,0.00,274.00,VWS V14.01,2013-02-26 16:53:00,
2013-02-26 09:58:00,32.7,14.2,29.90,North,-999,12.0,17.0,46,0.00,,,0.00,418.00,VWS V14.01,2013-02-26 16:58:00,
2013-02-26 10:03:00,33.1,13.6,29.91,North,-999,5.0,16.0,44,0.00,,,0.00,448.00,VWS V14.01,2013-02-26 17:03:00,
2013-02-26 10:08:00,33.4,13.9,29.91,North,-999,14.0,18.0,44,0.00,,,0.00,448.00,VWS V14.01,2013-02-26 17:08:00,
2013-02-26 10:13:00,33.8,14.2,29.91,North,-999,6.0,16.0,44,0.00,,,0.00,454.00,VWS V14.01,2013-02-26 17:13:00,
2013-02-26 10:18:00,34.2,14.1,29.90,North,-999,14.0,16.0,43,0.00,,,0.00,522.00,VWS V14.01,2013-02-26 17:18:00,
2013-02-26 10:23:00,34.6,13.9,29.91,North,-999,13.0,15.0,42,0.00,,,0.00,534.00,VWS V14.01,2013-02-26 17:23:00,
2013-02-26 10:28:00,35.1,13.8,29.91,North,-999,15.0,18.0,41,0.00,,,0.00,541.00,VWS V14.01,2013-02-26 17:28:00,
2013-02-26 10:33:00,35.0,13.1,29.91,North,-999,16.0,18.0,40,0.00,,,0.00,547.00,VWS V14.01,2013-02-26 17:33:00,
2013-02-26 10:38:00,35.2,13.3,29.91,North,-999,16.0,19.0,40,0.00,,,0.00,554.00,VWS V14.01,2013-02-26 17:38:00,
2013-02-26 10:43:00,35.3,13.4,29.91,North,-999,11.0,17.0,40,0.00,,,0.00,561.00,VWS V14.01,2013-02-26 17:43:00,
2013-02-26 10:48:00,35.6,13.1,29.91,North,-999,16.0,19.0,39,0.00,,,0.00,570.00,VWS V14.01,2013-02-26 17:48:00,
2013-02-26 10:53:00,35.5,13.6,29.91,North,-999,18.0,22.0,40,0.00,,,0.00,578.00,VWS V14.01,2013-02-26 17:53:00,
2013-02-26 10:58:00,35.2,12.7,29.91,North,-999,16.0,26.0,39,0.00,,,0.00,584.00,VWS V14.01,2013-02-26 17:58:00,
2013-02-26 11:03:00,35.5,13.6,29.91,North,-999,19.0,23.0,40,0.00,,,0.00,591.00,VWS V14.01,2013-02-26 18:03:00,
2013-02-26 11:08:00,35.3,13.4,29.91,North,-999,13.0,25.0,40,0.00,,,0.00,596.00,VWS V14.01,2013-02-26 18:08:00,
2013-02-26 11:13:00,35.3,13.4,29.91,North,-999,19.0,25.0,40,0.00,,,0.00,601.00,VWS V14.01,2013-02-26 18:13:00,
2013-02-26 11:18:00,35.6,13.7,29.91,North,-999,13.0,25.0,40,0.00,,,0.00,606.00,VWS V14.01,2013-02-26 18:18:00,
2013-02-26 11:23:00,36.1,13.6,29.91,North,-999,21.0,22.0,39,0.00,,,0.00,612.00,VWS V14.01,2013-02-26 18:23:00,
2013-02-26 11:28:00,36.1,13.0,29.91,North,-999,23.0,23.0,38,0.00,,,0.00,617.00,VWS V14.01,2013-02-26 18:28:00,
2013-02-26 11:33:00,36.1,13.0,29.91,North,-999,21.0,25.0,38,0.00,,,0.00,621.00,VWS V14.01,2013-02-26 18:33:00,
2013-02-26 11:38:00,36.2,13.1,29.91,North,-999,16.0,25.0,38,0.00,,,0.00,624.00,VWS V14.01,2013-02-26 18:38:00,
2013-02-26 11:43:00,36.6,12.2,29.91,North,-999,24.0,24.0,36,0.00,,,0.00,629.00,VWS V14.01,2013-02-26 18:43:00,
2013-02-26 11:48:00,36.9,11.8,29.91,North,-999,23.0,29.0,35,0.00,,,0.00,633.00,VWS V14.01,2013-02-26 18:48:00,
2013-02-26 11:53:00,37.1,12.6,29.91,North,-999,21.0,30.0,36,0.00,,,0.00,636.00,VWS V14.01,2013-02-26 18:53:00,
2013-02-26 11:58:00,37.0,12.5,29.91,North,-999,19.0,30.0,36,0.00,,,0.00,638.00,VWS V14.01,2013-02-26 18:58:00,
2013-02-26 12:03:00,37.1,12.6,29.91,North,-999,21.0,26.0,36,0.00,,,0.00,642.00,VWS V14.01,2013-02-26 19:03:00,
2013-02-26 12:08:00,36.8,13.0,29.91,North,-999,19.0,26.0,37,0.00,,,0.00,645.00,VWS V14.01,2013-02-26 19:08:00,
2013-02-26 12:13:00,37.0,11.2,29.91,North,-999,25.0,28.0,34,0.00,,,0.00,650.00,VWS V14.01,2013-02-26 19:13:00,
2013-02-26 12:18:00,37.1,11.3,29.91,North,-999,22.0,29.0,34,0.00,,,0.00,647.00,VWS V14.01,2013-02-26 19:18:00,
2013-02-26 12:23:00,37.4,12.9,29.91,North,-999,22.0,27.0,36,0.00,,,0.00,650.00,VWS V14.01,2013-02-26 19:23:00,
2013-02-26 12:28:00,37.7,12.5,29.91,North,-999,20.0,27.0,35,0.00,,,0.00,650.00,VWS V14.01,2013-02-26 19:28:00,
2013-02-26 12:33:00,37.7,11.9,29.91,North,-999,17.0,25.0,34,0.00,,,0.00,649.00,VWS V14.01,2013-02-26 19:33:00,
2013-02-26 12:38:00,37.4,12.3,29.91,North,-999,16.0,26.0,35,0.00,,,0.00,649.00,VWS V14.01,2013-02-26 19:38:00,
2013-02-26 12:43:00,37.7,12.5,29.91,North,-999,19.0,23.0,35,0.00,,,0.00,650.00,VWS V14.01,2013-02-26 19:43:00,
2013-02-26 12:48:00,37.5,12.4,29.91,North,-999,16.0,26.0,35,0.00,,,0.00,647.00,VWS V14.01,2013-02-26 19:48:00,
2013-02-26 12:53:00,37.6,12.4,29.91,North,-999,21.0,25.0,35,0.00,,,0.00,647.00,VWS V14.01,2013-02-26 19:53:00,
2013-02-26 12:58:00,37.6,12.4,29.91,North,-999,15.0,25.0,35,0.00,,,0.00,645.00,VWS V14.01,2013-02-26 19:58:00,
2013-02-26 13:03:00,37.5,12.4,29.91,North,-999,20.0,25.0,35,0.00,,,0.00,643.00,VWS V14.01,2013-02-26 20:03:00,
2013-02-26 13:08:00,37.7,12.5,29.91,North,-999,17.0,27.0,35,0.00,,,0.00,638.00,VWS V14.01,2013-02-26 20:08:00,
2013-02-26 13:13:00,38.0,12.1,29.91,North,-999,16.0,26.0,34,0.00,,,0.00,635.00,VWS V14.01,2013-02-26 20:13:00,
2013-02-26 13:18:00,38.1,12.2,29.91,North,-999,10.0,26.0,34,0.00,,,0.00,642.00,VWS V14.01,2013-02-26 20:18:00,
2013-02-26 13:23:00,37.8,12.6,29.91,North,-999,17.0,22.0,35,0.00,,,0.00,598.00,VWS V14.01,2013-02-26 20:23:00,
2013-02-26 13:28:00,37.8,12.6,29.91,North,-999,20.0,23.0,35,0.00,,,0.00,624.00,VWS V14.01,2013-02-26 20:28:00,
2013-02-26 13:33:00,37.9,12.7,29.91,North,-999,15.0,26.0,35,0.00,,,0.00,617.00,VWS V14.01,2013-02-26 20:33:00,
2013-02-26 13:38:00,37.9,12.7,29.91,North,-999,16.0,26.0,35,0.00,,,0.00,610.00,VWS V14.01,2013-02-26 20:38:00,
2013-02-26 13:43:00,38.1,12.2,29.91,North,-999,19.0,22.0,34,0.00,,,0.00,605.00,VWS V14.01,2013-02-26 20:43:00,
2013-02-26 13:48:00,38.2,13.0,29.91,North,-999,11.0,24.0,35,0.00,,,0.00,598.00,VWS V14.01,2013-02-26 20:48:00,
2013-02-26 13:53:00,38.5,13.2,29.91,North,-999,18.0,23.0,35,0.00,,,0.00,592.00,VWS V14.01,2013-02-26 20:53:00,
2013-02-26 13:58:00,38.6,12.7,29.91,North,-999,15.0,23.0,34,0.00,,,0.00,585.00,VWS V14.01,2013-02-26 20:58:00,
2013-02-26 14:03:00,38.6,12.7,29.91,North,-999,17.0,21.0,34,0.00,,,0.00,578.00,VWS V14.01,2013-02-26 21:03:00,
2013-02-26 14:08:00,38.5,11.2,29.91,North,-999,16.0,23.0,32,0.00,,,0.00,571.00,VWS V14.01,2013-02-26 21:08:00,
2013-02-26 14:13:00,38.4,12.5,29.91,North,-999,10.0,23.0,34,0.00,,,0.00,566.00,VWS V14.01,2013-02-26 21:13:00,
2013-02-26 14:18:00,38.4,11.8,29.91,North,-999,18.0,23.0,33,0.00,,,0.00,554.00,VWS V14.01,2013-02-26 21:18:00,
2013-02-26 14:23:00,38.4,12.5,29.91,North,-999,15.0,22.0,34,0.00,,,0.00,545.00,VWS V14.01,2013-02-26 21:23:00,
2013-02-26 14:28:00,38.3,11.7,29.91,North,-999,14.0,22.0,33,0.00,,,0.00,536.00,VWS V14.01,2013-02-26 21:28:00,
2013-02-26 14:33:00,38.0,11.5,29.92,North,-999,14.0,22.0,33,0.00,,,0.00,527.00,VWS V14.01,2013-02-26 21:33:00,
2013-02-26 14:38:00,38.3,11.7,29.92,North,-999,13.0,22.0,33,0.00,,,0.00,519.00,VWS V14.01,2013-02-26 21:38:00,
2013-02-26 14:42:00,38.6,11.3,29.92,North,-999,17.0,21.0,32,0.00,,,0.00,506.00,VWS V14.01,2013-02-26 21:42:00,
2013-02-26 14:47:00,38.4,11.1,29.92,North,-999,19.0,23.0,32,0.00,,,0.00,499.00,VWS V14.01,2013-02-26 21:47:00,
2013-02-26 14:52:00,38.6,12.0,29.92,North,-999,15.0,21.0,33,0.00,,,0.00,489.00,VWS V14.01,2013-02-26 21:52:00,
2013-02-26 14:57:00,38.4,11.1,29.92,North,-999,13.0,21.0,32,0.00,,,0.00,476.00,VWS V14.01,2013-02-26 21:57:00,
2013-02-26 15:02:00,38.4,11.1,29.92,North,-999,14.0,22.0,32,0.00,,,0.00,466.00,VWS V14.01,2013-02-26 22:02:00,
2013-02-26 15:07:00,38.4,10.4,29.93,North,-999,12.0,23.0,31,0.00,,,0.00,457.00,VWS V14.01,2013-02-26 22:07:00,
2013-02-26 15:12:00,38.6,11.3,29.93,North,-999,14.0,22.0,32,0.00,,,0.00,432.00,VWS V14.01,2013-02-26 22:12:00,
2013-02-26 15:17:00,38.5,11.2,29.93,North,-999,11.0,22.0,32,0.00,,,0.00,417.00,VWS V14.01,2013-02-26 22:17:00,
2013-02-26 15:22:00,38.9,10.1,29.93,North,-999,13.0,20.0,30,0.00,,,0.00,417.00,VWS V14.01,2013-02-26 22:22:00,
2013-02-26 15:27:00,38.7,10.7,29.93,North,-999,16.0,21.0,31,0.00,,,0.00,403.00,VWS V14.01,2013-02-26 22:27:00,
2013-02-26 15:32:00,38.8,11.5,29.93,North,-999,13.0,24.0,32,0.00,,,0.00,367.00,VWS V14.01,2013-02-26 22:32:00,
2013-02-26 15:37:00,38.8,10.8,29.93,North,-999,18.0,24.0,31,0.00,,,0.00,380.00,VWS V14.01,2013-02-26 22:37:00,
2013-02-26 15:42:00,38.6,10.6,29.93,North,-999,13.0,22.0,31,0.00,,,0.00,367.00,VWS V14.01,2013-02-26 22:42:00,
2013-02-26 15:47:00,38.6,11.3,29.93,North,-999,18.0,22.0,32,0.00,,,0.00,355.00,VWS V14.01,2013-02-26 22:47:00,
2013-02-26 15:52:00,38.7,10.7,29.94,North,-999,14.0,21.0,31,0.00,,,0.00,341.00,VWS V14.01,2013-02-26 22:52:00,
2013-02-26 15:57:00,38.5,11.2,29.95,North,-999,19.0,22.0,32,0.00,,,0.00,309.00,VWS V14.01,2013-02-26 22:57:00,
2013-02-26 16:02:00,38.7,11.4,29.95,North,-999,15.0,21.0,32,0.00,,,0.00,207.00,VWS V14.01,2013-02-26 23:02:00,
2013-02-26 16:07:00,38.6,10.6,29.94,North,-999,18.0,21.0,31,0.00,,,0.00,302.00,VWS V14.01,2013-02-26 23:07:00,
2013-02-26 16:12:00,38.7,10.7,29.95,North,-999,11.0,21.0,31,0.00,,,0.00,288.00,VWS V14.01,2013-02-26 23:12:00,
2013-02-26 16:17:00,38.5,9.8,29.95,North,-999,18.0,21.0,30,0.00,,,0.00,274.00,VWS V14.01,2013-02-26 23:17:00,
2013-02-26 16:22:00,38.3,10.3,29.95,North,-999,17.0,21.0,31,0.00,,,0.00,250.00,VWS V14.01,2013-02-26 23:22:00,
2013-02-26 16:27:00,38.5,10.5,29.95,North,-999,13.0,21.0,31,0.00,,,0.00,227.00,VWS V14.01,2013-02-26 23:27:00,
2013-02-26 16:32:00,38.6,10.6,29.95,North,-999,13.0,18.0,31,0.00,,,0.00,179.00,VWS V14.01,2013-02-26 23:32:00,
2013-02-26 16:37:00,38.4,11.1,29.95,North,-999,17.0,20.0,32,0.00,,,0.00,165.00,VWS V14.01,2013-02-26 23:37:00,
2013-02-26 16:42:00,38.3,11.7,29.95,North,-999,13.0,22.0,33,0.00,,,0.00,165.00,VWS V14.01,2013-02-26 23:42:00,
2013-02-26 16:47:00,38.1,12.2,29.95,North,-999,15.0,24.0,34,0.00,,,0.00,134.00,VWS V14.01,2013-02-26 23:47:00,
2013-02-26 16:52:00,37.8,12.0,29.96,North,-999,17.0,25.0,34,0.00,,,0.00,130.00,VWS V14.01,2013-02-26 23:52:00,
2013-02-26 16:57:00,37.7,12.5,29.96,North,-999,20.0,25.0,35,0.00,,,0.00,90.00,VWS V14.01,2013-02-26 23:57:00,
2013-02-26 17:02:00,37.5,12.4,29.96,North,-999,17.0,23.0,35,0.00,,,0.00,107.00,VWS V14.01,2013-02-27 00:02:00,
2013-02-26 17:07:00,37.2,13.3,29.97,North,-999,16.0,23.0,37,0.00,,,0.00,58.00,VWS V14.01,2013-02-27 00:07:00,
2013-02-26 17:12:00,36.8,13.6,29.97,North,-999,16.0,20.0,38,0.00,,,0.00,30.00,VWS V14.01,2013-02-27 00:12:00,
2013-02-26 17:17:00,36.3,13.7,29.97,North,-999,16.0,20.0,39,0.00,,,0.00,23.00,VWS V14.01,2013-02-27 00:17:00,
2013-02-26 17:22:00,36.1,14.1,29.97,North,-999,13.0,18.0,40,0.00,,,0.00,21.00,VWS V14.01,2013-02-27 00:22:00,
2013-02-26 17:27:00,35.7,14.3,29.98,North,-999,6.0,18.0,41,0.00,,,0.00,19.00,VWS V14.01,2013-02-27 00:27:00,
2013-02-26 17:32:00,35.2,14.4,29.98,North,-999,9.0,10.0,42,0.00,,,0.00,16.00,VWS V14.01,2013-02-27 00:32:00,
2013-02-26 17:37:00,34.8,14.6,29.98,North,-999,6.0,11.0,43,0.00,,,0.00,12.00,VWS V14.01,2013-02-27 00:37:00,
2013-02-26 17:42:00,34.5,14.3,29.98,North,-999,2.0,10.0,43,0.00,,,0.00,11.00,VWS V14.01,2013-02-27 00:42:00,
2013-02-26 17:47:00,34.2,14.1,29.98,North,-999,5.0,10.0,43,0.00,,,0.00,9.00,VWS V14.01,2013-02-27 00:47:00,
2013-02-26 17:52:00,33.8,13.7,29.98,North,-999,6.0,7.0,43,0.00,,,0.00,7.00,VWS V14.01,2013-02-27 00:52:00,
2013-02-26 17:57:00,33.3,13.8,29.99,North,-999,2.0,7.0,44,0.00,,,0.00,5.00,VWS V14.01,2013-02-27 00:57:00,
2013-02-26 18:02:00,32.9,13.4,29.99,North,-999,4.0,6.0,44,0.00,,,0.00,0.00,VWS V14.01,2013-02-27 01:02:00,
2013-02-26 18:07:00,32.6,13.6,29.99,North,-999,4.0,7.0,45,0.00,,,0.00,0.00,VWS V14.01,2013-02-27 01:07:00,
2013-02-26 18:12:00,32.4,13.4,29.99,North,-999,0.0,7.0,45,0.00,,,0.00,0.00,VWS V14.01,2013-02-27 01:12:00,
2013-02-26 18:17:00,32.1,13.7,29.99,North,-999,1.0,7.0,46,0.00,,,0.00,0.00,VWS V14.01,2013-02-27 01:17:00,
2013-02-26 18:22:00,31.8,13.4,29.99,North,-999,5.0,6.0,46,0.00,,,0.00,0.00,VWS V14.01,2013-02-27 01:22:00,
2013-02-26 18:27:00,31.6,13.7,29.99,North,-999,5.0,9.0,47,0.00,,,0.00,0.00,VWS V14.01,2013-02-27 01:27:00,
2013-02-26 18:32:00,31.8,14.4,29.99,North,-999,1.0,9.0,48,0.00,,,0.00,0.00,VWS V14.01,2013-02-27 01:32:00,
2013-02-26 18:37:00,31.7,14.3,30.00,North,-999,5.0,9.0,48,0.00,,,0.00,0.00,VWS V14.01,2013-02-27 01:37:00,
2013-02-26 18:42:00,31.6,14.2,29.99,North,-999,3.0,9.0,48,0.00,,,0.00,0.00,VWS V14.01,2013-02-27 01:42:00,
2013-02-26 18:47:00,31.5,14.6,30.00,North,-999,2.0,9.0,49,0.00,,,0.00,0.00,VWS V14.01,2013-02-27 01:47:00,
2013-02-26 18:52:00,31.4,14.5,30.00,North,-999,5.0,7.0,49,0.00,,,0.00,0.00,VWS V14.01,2013-02-27 01:52:00,
2013-02-26 18:57:00,31.2,14.3,30.00,North,-999,5.0,7.0,49,0.00,,,0.00,0.00,VWS V14.01,2013-02-27 01:57:00,
2013-02-26 19:02:00,31.1,14.2,30.00,North,-999,1.0,9.0,49,0.00,,,0.00,0.00,VWS V14.01,2013-02-27 02:02:00,
2013-02-26 19:07:00,31.1,14.2,30.00,North,-999,5.0,9.0,49,0.00,,,0.00,0.00,VWS V14.01,2013-02-27 02:07:00,
2013-02-26 19:12:00,31.0,14.1,30.00,North,-999,6.0,9.0,49,0.00,,,0.00,0.00,VWS V14.01,2013-02-27 02:12:00,
2013-02-26 19:17:00,30.9,14.0,30.01,North,-999,9.0,11.0,49,0.00,,,0.00,0.00,VWS V14.01,2013-02-27 02:17:00,
2013-02-26 19:22:00,30.7,14.3,30.01,North,-999,6.0,9.0,50,0.00,,,0.00,0.00,VWS V14.01,2013-02-27 02:22:00,
2013-02-26 19:27:00,30.8,14.8,30.01,North,-999,5.0,9.0,51,0.00,,,0.00,0.00,VWS V14.01,2013-02-27 02:27:00,
2013-02-26 19:32:00,30.6,14.6,30.01,North,-999,0.0,8.0,51,0.00,,,0.00,0.00,VWS V14.01,2013-02-27 02:32:00,
2013-02-26 19:37:00,30.4,14.9,30.01,North,-999,0.0,8.0,52,0.00,,,0.00,0.00,VWS V14.01,2013-02-27 02:37:00,
2013-02-26 19:42:00,30.3,14.8,30.01,North,-999,2.0,3.0,52,0.00,,,0.00,0.00,VWS V14.01,2013-02-27 02:42:00,
2013-02-26 19:47:00,30.1,15.1,30.01,North,-999,0.0,7.0,53,0.00,,,0.00,0.00,VWS V14.01,2013-02-27 02:47:00,
2013-02-26 19:52:00,29.9,15.3,30.02,North,-999,5.0,7.0,54,0.00,,,0.00,0.00,VWS V14.01,2013-02-27 02:52:00,
2013-02-26 19:57:00,29.8,15.6,30.02,North,-999,1.0,7.0,55,0.00,,,0.00,0.00,VWS V14.01,2013-02-27 02:57:00,
2013-02-26 20:02:00,29.6,15.8,30.02,North,-999,0.0,1.0,56,0.00,,,0.00,0.00,VWS V14.01,2013-02-27 03:02:00,
2013-02-26 20:07:00,29.4,15.7,30.02,North,-999,0.0,1.0,56,0.00,,,0.00,0.00,VWS V14.01,2013-02-27 03:07:00,
2013-02-26 20:12:00,29.2,15.9,30.02,North,-999,0.0,0.0,57,0.00,,,0.00,0.00,VWS V14.01,2013-02-27 03:12:00,
2013-02-26 20:17:00,29.1,15.8,30.03,North,-999,0.0,0.0,57,0.00,,,0.00,0.00,VWS V14.01,2013-02-27 03:17:00,
2013-02-26 20:22:00,29.0,16.1,30.03,North,-999,0.0,0.0,58,0.00,,,0.00,0.00,VWS V14.01,2013-02-27 03:22:00,
2013-02-26 20:27:00,28.9,16.0,30.03,North,-999,0.0,0.0,58,0.00,,,0.00,0.00,VWS V14.01,2013-02-27 03:27:00,
2013-02-26 20:32:00,28.8,15.9,30.03,North,-999,0.0,0.0,58,0.00,,,0.00,0.00,VWS V14.01,2013-02-27 03:32:00,
2013-02-26 20:37:00,28.6,14.9,30.03,North,-999,0.0,0.0,56,0.00,,,0.00,0.00,VWS V14.01,2013-02-27 03:37:00,
2013-02-26 20:42:00,28.4,15.5,30.03,North,-999,0.0,0.0,58,0.00,,,0.00,0.00,VWS V14.01,2013-02-27 03:42:00,
2013-02-26 20:47:00,28.4,16.3,30.03,North,-999,3.0,3.0,60,0.00,,,0.00,0.00,VWS V14.01,2013-02-27 03:47:00,
2013-02-26 20:52:00,28.7,17.3,30.03,North,-999,1.0,3.0,62,0.00,,,0.00,0.00,VWS V14.01,2013-02-27 03:52:00,
2013-02-26 20:57:00,29.5,18.1,30.03,North,-999,0.0,4.0,62,0.00,,,0.00,0.00,VWS V14.01,2013-02-27 03:57:00,
2013-02-26 21:02:00,30.0,18.2,30.03,North,-999,0.0,5.0,61,0.00,,,0.00,0.00,VWS V14.01,2013-02-27 04:02:00,
2013-02-26 21:07:00,30.1,18.3,30.03,North,-999,0.0,5.0,61,0.00,,,0.00,0.00,VWS V14.01,2013-02-27 04:07:00,
2013-02-26 21:12:00,30.1,18.3,30.03,North,-999,0.0,0.0,61,0.00,,,0.00,0.00,VWS V14.01,2013-02-27 04:12:00,
2013-02-26 21:17:00,30.0,18.2,30.04,North,-999,0.0,0.0,61,0.00,,,0.00,0.00,VWS V14.01,2013-02-27 04:17:00,
2013-02-26 21:22:00,29.8,17.2,30.04,North,-999,0.0,0.0,59,0.00,,,0.00,0.00,VWS V14.01,2013-02-27 04:22:00,
2013-02-26 21:27:00,29.1,16.2,30.04,North,-999,2.0,3.0,58,0.00,,,0.00,0.00,VWS V14.01,2013-02-27 04:27:00,
2013-02-26 21:32:00,28.8,16.7,30.04,North,-999,4.0,5.0,60,0.00,,,0.00,0.00,VWS V14.01,2013-02-27 04:32:00,
2013-02-26 21:37:00,29.1,17.0,30.04,North,-999,2.0,5.0,60,0.00,,,0.00,0.00,VWS V14.01,2013-02-27 04:37:00,
2013-02-26 21:42:00,29.3,16.8,30.04,North,-999,0.0,2.0,59,0.00,,,0.00,0.00,VWS V14.01,2013-02-27 04:42:00,
2013-02-26 21:47:00,28.9,15.2,30.04,North,-999,0.0,2.0,56,0.00,,,0.00,0.00,VWS V14.01,2013-02-27 04:47:00,
2013-02-26 21:52:00,28.0,12.7,30.04,North,-999,0.0,0.0,52,0.00,,,0.00,0.00,VWS V14.01,2013-02-27 04:52:00,
2013-02-26 21:57:00,27.1,12.2,30.04,North,-999,4.0,4.0,53,0.00,,,0.00,0.00,VWS V14.01,2013-02-27 04:57:00,
2013-02-26 22:00:00,26.7,11.9,30.04,North,-999,0.0,1.0,53,0.00,,,0.00,0.00,VWS V14.01,2013-02-27 05:00:00,
2013-02-26 22:05:00,25.9,10.7,30.04,North,-999,1.0,4.0,52,0.00,,,0.00,0.00,VWS V14.01,2013-02-27 05:05:00,
2013-02-26 22:10:00,24.8,9.7,30.04,North,-999,0.0,0.0,52,0.00,,,0.00,0.00,VWS V14.01,2013-02-27 05:10:00,
2013-02-26 22:15:00,24.4,10.1,30.04,North,-999,0.0,1.0,54,0.00,,,0.00,0.00,VWS V14.01,2013-02-27 05:15:00,
2013-02-26 22:20:00,23.6,9.0,30.05,North,-999,0.0,1.0,53,0.00,,,0.00,0.00,VWS V14.01,2013-02-27 05:20:00,
2013-02-26 22:25:00,23.1,9.8,30.05,North,-999,5.0,6.0,56,0.00,,,0.00,0.00,VWS V14.01,2013-02-27 05:25:00,
2013-02-26 22:30:00,23.4,10.4,30.05,North,-999,5.0,5.0,57,0.00,,,0.00,0.00,VWS V14.01,2013-02-27 05:30:00,
2013-02-26 22:35:00,23.6,10.6,30.05,North,-999,3.0,6.0,57,0.00,,,0.00,0.00,VWS V14.01,2013-02-27 05:35:00,
2013-02-26 22:40:00,23.5,10.9,30.05,North,-999,4.0,5.0,58,0.00,,,0.00,0.00,VWS V14.01,2013-02-27 05:40:00,
2013-02-26 22:45:00,23.4,10.4,30.05,North,-999,1.0,5.0,57,0.00,,,0.00,0.00,VWS V14.01,2013-02-27 05:45:00,
2013-02-26 22:50:00,23.0,10.1,30.05,North,-999,1.0,1.0,57,0.00,,,0.00,0.00,VWS V14.01,2013-02-27 05:50:00,
2013-02-26 22:55:00,22.8,9.9,30.05,North,-999,1.0,2.0,57,0.00,,,0.00,0.00,VWS V14.01,2013-02-27 05:55:00,
2013-02-26 23:00:00,22.7,9.8,30.05,North,-999,0.0,0.0,57,0.00,,,0.00,0.00,VWS V14.01,2013-02-27 06:00:00,
2013-02-26 23:05:00,22.6,9.7,30.05,North,-999,0.0,0.0,57,0.00,,,0.00,0.00,VWS V14.01,2013-02-27 06:05:00,
2013-02-26 23:10:00,22.4,9.5,30.05,North,-999,0.0,0.0,57,0.00,,,0.00,0.00,VWS V14.01,2013-02-27 06:10:00,
2013-02-26 23:15:00,22.2,9.7,30.05,North,-999,0.0,0.0,58,0.00,,,0.00,0.00,VWS V14.01,2013-02-27 06:15:00,
2013-02-26 23:20:00,22.1,9.6,30.06,North,-999,2.0,3.0,58,0.00,,,0.00,0.00,VWS V14.01,2013-02-27 06:20:00,
2013-02-26 23:25:00,21.9,9.4,30.06,North,-999,6.0,6.0,58,0.00,,,0.00,0.00,VWS V14.01,2013-02-27 06:25:00,
2013-02-26 23:30:00,21.6,9.5,30.06,North,-999,0.0,3.0,59,0.00,,,0.00,0.00,VWS V14.01,2013-02-27 06:30:00,
2013-02-26 23:35:00,21.5,10.1,30.06,North,-999,0.0,3.0,61,0.00,,,0.00,0.00,VWS V14.01,2013-02-27 06:35:00,
2013-02-26 23:40:00,21.4,10.1,30.06,North,-999,0.0,0.0,61,0.00,,,0.00,0.00,VWS V14.01,2013-02-27 06:40:00,
2013-02-26 23:45:00,21.3,10.0,30.06,North,-999,0.0,0.0,61,0.00,,,0.00,0.00,VWS V14.01,2013-02-27 06:45:00,
2013-02-26 23:50:00,21.3,10.7,30.06,North,-999,0.0,0.0,63,0.00,,,0.00,0.00,VWS V14.01,2013-02-27 06:50:00,
2013-02-26 23:55:00,21.4,10.8,30.06,North,-999,0.0,0.0,63,0.00,,,0.00,0.00,VWS V14.01,2013-02-27 06:55:00,